[[{"header":{"parameterUnit":"m.s-1","parameterCategory":2,"la1":30.2991,"la2":30.254,"lo1":-89.0895,"lo2":-89.0444,"dy":0.0017,"dx":0.0017,"nx":28,"ny":28,"refTime":"2024-12-18T09:00:00:Z","depth":"0","parameterNumber":2,"parameterNumberName":"U-component_of_CURRENTS"},"data":[0,0,0,0,0,0,0,0,0,0,0,0,0,0,0,0,0,0,0,0,0,0,0,0,0,0,0,0,0,0,0,0,0,0,0,0,0,0,0,0,0,0,0,0,0,0,0,0,0,0,0,0,0,0,0,0,0,0,0.3507,0.3507,0,0.3516,0.3516,0.3516,0.3538,0.3539,0.3539,0.354,0.3548,0.3548,0.3548,0,0,0,0,0,0,0,0,0,0,0,0,0,0.3526,0.3525,0.3507,0.3507,0.3507,0.3516,0.3516,0.3516,0.3538,0.3539,0.3539,0.354,0.3548,0.3548,0.3548,0,0,0,0,0,0,0,0,0,0,0,0,0,0.3524,0.3525,0.3507,0.3519,0.3521,0.3516,0.3516,0.3516,0.3538,0.3539,0.3539,0.354,0.3548,0.3548,0.3548,0.3531,0,0,0.3547,0.3546,0,0,0,0,0,0,0,0,0.3524,0.3523,0.3517,0.3518,0.352,0.3527,0.3526,0.3521,0.3538,0.3531,0.354,0.354,0.3541,0.3541,0.3541,0.3531,0.3532,0.3547,0.3546,0.3546,0.3546,0,0,0,0,0,0,0,0.3524,0.3523,0.351,0.3517,0.3519,0.3531,0.3531,0.3525,0.3531,0.3532,0.3533,0.3535,0.3541,0.3541,0.3541,0.3532,0.3547,0.3546,0.3546,0.3546,0.356,0.3561,0,0,0,0,0,0,0.3522,0.3523,0.351,0.3511,0.3524,0.353,0.353,0.3524,0.3532,0.3534,0.3534,0.3536,0.3541,0.3541,0.3541,0.3556,0.3546,0.3546,0.3546,0.356,0.3561,0.3561,0,0,0,0,0,0,0.3522,0.352,0.351,0.3518,0.3517,0.3528,0.3521,0.3524,0.3529,0.3533,0.3535,0.3538,0.3542,0.3542,0.3549,0.3555,0.3546,0.3545,0.3559,0.356,0.3561,0.3564,0,0,0,0,0,0,0.3522,0.352,0.3518,0.3517,0.3517,0.3507,0.3521,0.3523,0.3528,0.353,0.3537,0.3538,0.3542,0.3549,0.3548,0.3555,0.3545,0.3558,0.356,0.3561,0.3563,0.3564,0.3566,0,0,0,0,0,0.3523,0.3512,0.3517,0.3516,0.3512,0.3507,0.3507,0.3518,0.3528,0.3526,0.3539,0.3538,0.3556,0.3549,0.3548,0.3554,0.3558,0.3559,0.356,0.3562,0.3564,0.3566,0,0,0,0,0,0,0.3517,0.3513,0.3519,0.3508,0.3509,0.3511,0.3512,0.3517,0.3525,0.3532,0.3539,0.3541,0.3555,0.3552,0.3544,0.3564,0.3559,0.356,0.3561,0.3563,0.3564,0.3592,0.3545,0,0,0,0,0,0.3514,0.351,0.3507,0.3502,0.3501,0.3507,0.3508,0.3513,0.3519,0.3524,0.3528,0.354,0.3558,0.3558,0.3569,0.3567,0.3598,0.3574,0.3575,0.3576,0.36,0.3654,0.3663,0.3565,0.3565,0.3565,0,0,0.3509,0.351,0.3506,0.3501,0.3505,0.3507,0.3509,0.3509,0.352,0.3522,0.3535,0.3545,0.3561,0.3573,0.3577,0.3569,0.3618,0.3578,0.3579,0.3602,0.3656,0.3666,0.3675,0.3566,0.3566,0.3566,0,0,0.3495,0.3499,0.3487,0.3493,0.3497,0.3505,0.3505,0.3505,0.3515,0.3519,0.354,0.3559,0.3558,0.3585,0.3597,0.3612,0.363,0.3606,0.3627,0.3679,0.3688,0.3696,0.3737,0.3749,0.3599,0.3599,0.3599,0,0.3485,0.3478,0.3484,0.3482,0.3492,0.3506,0.3503,0.3517,0.3521,0.3537,0.3525,0.3572,0.3574,0.3622,0.3628,0.3618,0.3647,0.3615,0.3682,0.3691,0.3699,0.3739,0.3753,0.3599,0.3599,0.3599,0.3599,0,0.3462,0.3467,0.3463,0.3473,0.3484,0.3484,0.3505,0.3518,0.3529,0.3546,0.3585,0.3597,0.363,0.3628,0.363,0.3691,0.3692,0.3683,0.3678,0.371,0.3749,0.3763,0.36,0.36,0.3599,0.3599,0,0,0.3402,0.3437,0.3437,0.3448,0.348,0.3481,0.3516,0.3545,0.3588,0.3587,0.3638,0.3659,0.3675,0.3693,0.3701,0.3738,0.3807,0.3733,0.3735,0.3775,0.3921,0.3875,0.3885,0.3808,0.3811,0.3813,0.3921,0,0.3376,0.338,0.341,0.3425,0.3426,0.3473,0.3512,0.3551,0.3594,0.3648,0.3676,0.373,0.3698,0.3727,0.3756,0.3813,0.3846,0.3779,0.3884,0.3888,0.3844,0.3901,0.3739,0.3818,0.3934,0.3936,0.3938,0,0.3327,0.3346,0.3351,0.3411,0.3418,0.3439,0.352,0.356,0.3655,0.3697,0.3756,0.3792,0.3861,0.3826,0.3926,0.3885,0.3906,0.3934,0.3938,0.3911,0.3868,0.3808,0.3839,0.3755,0.3959,0.3958,0.3956,0,0.326,0.3299,0.3308,0.3323,0.3393,0.3417,0.3466,0.3565,0.3621,0.3747,0.3799,0.3886,0.3935,0.3985,0.4022,0.3989,0.4132,0.4091,0.4068,0.4064,0.3958,0.394,0.3924,0.4163,0.4163,0.4163,0.4163,0,0.3206,0.3209,0.3279,0.328,0.3316,0.3383,0.3446,0.3526,0.3649,0.3725,0.3818,0.3894,0.3979,0.4053,0.4073,0.4121,0.4171,0.41,0.4101,0.3951,0.3933,0.3879,0.3837,0.4167,0.4166,0.4165,0.4165,0,0.3117,0.3159,0.3173,0.325,0.3277,0.3304,0.342,0.3474,0.3609,0.3717,0.376,0.3922,0.4034,0.4101,0.4212,0.4184,0.4128,0.4236,0.4052,0.4028,0.3904,0.3867,0.376,0.3641,0.4237,0.4237,0.4236,0,0.3065,0.3064,0.3137,0.315,0.3181,0.3239,0.3283,0.3433,0.3504,0.3721,0.3762,0.3928,0.4013,0.4165,0.419,0.4242,0.4113,0.4103,0.4006,0.3901,0.3861,0.3721,0.3618,0.3864,0.3861,0.3858,0.3856,0,0.2975,0.3005,0.3025,0.3063,0.3097,0.3139,0.3219,0.3276,0.3456,0.3548,0.3688,0.3789,0.3972,0.3981,0.4078,0.4084,0.3905,0.4048,0.3987,0.362,0.3419,0.3302,0.3791,0.3832,0.3834,0.3836,0.3837,0.3838,0.2908,0.2902,0.2937,0.2959,0.2994,0.3016,0.3013,0.3119,0.3205,0.333,0.352,0.3602,0.3753,0.3879,0.3869,0.3775,0.3758,0.3653,0.3637,0.3521,0.3336,0.3775,0.3783,0.3785,0.3786,0.3788,0.3789,0,0.281,0.2816,0.2832,0.2845,0.2825,0.2888,0.2941,0.2919,0.2952,0.3133,0.3228,0.3341,0.3396,0.3496,0.3512,0.3387,0.3223,0.329,0.3053,0.2985,0.3428,0.3342,0.3193,0.3193,0.3194,0.3194,0.3194,0.3194,0.2758,0.2725,0.273,0.2664,0.2667,0.2593,0.2586,0.2592,0.2673,0.273,0.2795,0.2925,0.318,0.3292,0.3202,0.3116,0.287,0.2739,0.2743,0.3067,0.3099,0.3129,0.3038,0.2829,0.2828,0.2156,0.2152,0.2148]},{"header":{"parameterUnit":"m.s-1","parameterCategory":2,"la1":30.2991,"la2":30.254,"lo1":-89.0895,"lo2":-89.0444,"dy":0.0017,"dx":0.0017,"nx":28,"ny":28,"refTime":"2024-12-18T09:00:00:Z","depth":"0","parameterNumber":3,"parameterNumberName":"V-component_of_CURRENTS"},"data":[0,0,0,0,0,0,0,0,0,0,0,0,0,0,0,0,0,0,0,0,0,0,0,0,0,0,0,0,0,0,0,0,0,0,0,0,0,0,0,0,0,0,0,0,0,0,0,0,0,0,0,0,0,0,0,0,0,0,-0.0137,-0.0138,0,-0.02,-0.0201,-0.0202,-0.0273,-0.0274,-0.0275,-0.0275,-0.0383,-0.0386,-0.0388,0,0,0,0,0,0,0,0,0,0,0,0,0,-0.0143,-0.0142,-0.0137,-0.0138,-0.0138,-0.02,-0.0201,-0.0202,-0.0273,-0.0274,-0.0275,-0.0276,-0.0383,-0.0385,-0.0388,0,0,0,0,0,0,0,0,0,0,0,0,0,-0.017,-0.0142,-0.0137,-0.0178,-0.0182,-0.0199,-0.0201,-0.0202,-0.0273,-0.0274,-0.0275,-0.0276,-0.0382,-0.0385,-0.0388,-0.0388,0,0,-0.0399,-0.04,0,0,0,0,0,0,0,0,-0.0168,-0.017,-0.0172,-0.0175,-0.018,-0.0226,-0.0242,-0.0265,-0.0273,-0.0242,-0.0275,-0.0276,-0.0332,-0.0339,-0.0354,-0.0393,-0.0398,-0.0399,-0.0401,-0.0402,-0.0403,0,0,0,0,0,0,0,-0.0166,-0.0168,-0.0166,-0.0172,-0.0177,-0.0215,-0.022,-0.0248,-0.0284,-0.0245,-0.025,-0.025,-0.0335,-0.035,-0.0357,-0.0399,-0.0399,-0.0402,-0.0404,-0.0405,-0.0456,-0.0455,0,0,0,0,0,0,-0.0146,-0.0166,-0.0164,-0.0167,-0.0172,-0.0213,-0.0219,-0.0213,-0.0283,-0.0293,-0.0249,-0.0253,-0.0344,-0.0353,-0.0361,-0.0357,-0.0402,-0.0405,-0.0407,-0.0456,-0.0455,-0.0455,0,0,0,0,0,0,-0.0145,-0.0145,-0.0161,-0.0166,-0.017,-0.0211,-0.0205,-0.0214,-0.0226,-0.0285,-0.0297,-0.0251,-0.0345,-0.0356,-0.0381,-0.0362,-0.0407,-0.041,-0.0457,-0.0456,-0.0455,-0.0354,0,0,0,0,0,0,-0.0145,-0.0144,-0.0136,-0.0164,-0.0169,-0.0158,-0.0204,-0.0214,-0.0223,-0.0229,-0.029,-0.0302,-0.0347,-0.0376,-0.0384,-0.0367,-0.0413,-0.0458,-0.0457,-0.0455,-0.0358,-0.0349,-0.0342,0,0,0,0,0,-0.0145,-0.0122,-0.0135,-0.0135,-0.0155,-0.0156,-0.0162,-0.0199,-0.0222,-0.0216,-0.0263,-0.03,-0.0374,-0.0377,-0.0388,-0.0372,-0.0458,-0.0457,-0.0455,-0.0361,-0.0351,-0.0342,0,0,0,0,0,0,-0.012,-0.0128,-0.0143,-0.0124,-0.0133,-0.0166,-0.0163,-0.0187,-0.0219,-0.0229,-0.029,-0.0304,-0.0321,-0.0358,-0.036,-0.0384,-0.0423,-0.0423,-0.0348,-0.0338,-0.0331,-0.0312,-0.0415,0,0,0,0,0,-0.0108,-0.0096,-0.011,-0.0095,-0.0094,-0.0127,-0.0133,-0.0155,-0.0185,-0.02,-0.0241,-0.0287,-0.0322,-0.0339,-0.0377,-0.0383,-0.0415,-0.0381,-0.0373,-0.0366,-0.0359,-0.0389,-0.0383,-0.045,-0.045,-0.045,0,0,-0.0095,-0.0097,-0.0092,-0.009,-0.0102,-0.0089,-0.0134,-0.0132,-0.013,-0.0206,-0.0214,-0.026,-0.0319,-0.0333,-0.0343,-0.036,-0.0361,-0.0364,-0.0357,-0.0354,-0.0387,-0.038,-0.0374,-0.0449,-0.0449,-0.0449,0,0,-0.0055,-0.0061,-0.0035,-0.0036,-0.0041,-0.0058,-0.005,-0.0073,-0.0091,-0.0103,-0.016,-0.0188,-0.0239,-0.0274,-0.0301,-0.0269,-0.032,-0.0283,-0.0225,-0.0253,-0.0248,-0.0243,-0.0262,-0.026,-0.0276,-0.0275,-0.0275,0,-0.0038,-0.0008,-0.0028,-0.0003,0.0005,-0.0035,-0.0005,-0.0025,-0.0057,-0.0062,-0.0094,-0.0163,-0.0212,-0.0229,-0.0223,-0.025,-0.0274,-0.0253,-0.0241,-0.0238,-0.0235,-0.0255,-0.0255,-0.027,-0.0271,-0.0272,-0.0272,0,0.0022,0.0042,0.0061,0.0078,0.0083,0.0103,0.0081,0.0078,0.005,0.0026,0.0003,-0.0065,-0.0104,-0.0124,-0.0168,-0.0168,-0.0192,-0.0228,-0.0261,-0.0222,-0.0246,-0.0247,-0.0263,-0.0265,-0.0267,-0.0268,0,0,0.0076,0.0099,0.0106,0.0128,0.0129,0.0143,0.0152,0.0156,0.0171,0.012,0.0132,0.006,0.0023,-0.0009,-0.0065,-0.0093,-0.0094,-0.0144,-0.0148,-0.0153,-0.0148,-0.0162,-0.0165,-0.0128,-0.0128,-0.0128,-0.0168,0,0.0132,0.0195,0.0188,0.0244,0.0278,0.0249,0.0264,0.0254,0.0237,0.0237,0.0162,0.0144,0.0067,0.0052,0.0013,-0.0066,-0.0094,-0.0079,-0.0194,-0.0197,-0.0206,-0.0165,-0.0142,-0.0175,-0.0169,-0.0169,-0.0169,0,0.0199,0.0232,0.0296,0.0333,0.0346,0.0365,0.0392,0.0404,0.0384,0.0369,0.0335,0.0272,0.0223,0.0149,0.0038,0.0052,-0.0036,-0.0106,-0.011,-0.0159,-0.0212,-0.0218,-0.0178,-0.033,-0.0172,-0.0171,-0.0171,0,0.0256,0.0312,0.0366,0.0379,0.0408,0.0427,0.0443,0.0443,0.0478,0.0458,0.0474,0.039,0.0365,0.0239,0.0089,0.0066,-0.0032,-0.0085,-0.0181,-0.0183,-0.0204,-0.0208,-0.0318,-0.0164,-0.0163,-0.0163,-0.0163,0,0.0324,0.0369,0.0395,0.0425,0.0499,0.049,0.0566,0.0567,0.059,0.0658,0.055,0.0577,0.0386,0.0298,0.0141,-0.0009,0.0006,-0.0158,-0.0191,-0.0167,-0.0167,-0.0336,-0.0443,-0.0165,-0.0165,-0.0164,-0.0164,0,0.038,0.0394,0.0464,0.0505,0.0528,0.0581,0.0662,0.0717,0.0719,0.0805,0.0803,0.0731,0.0624,0.0423,0.0236,0.008,-0.0172,-0.0145,-0.0099,-0.0125,-0.0362,-0.0464,-0.0631,-0.0691,-0.0251,-0.0251,-0.0252,0,0.0414,0.0454,0.053,0.0585,0.0608,0.0689,0.0751,0.0784,0.0862,0.0913,0.0966,0.0879,0.0856,0.0567,0.0275,0.0007,-0.0171,-0.0166,-0.0216,-0.0359,-0.0497,-0.0574,-0.0617,-0.0202,-0.0202,-0.0202,-0.0202,0,0.0484,0.0504,0.0562,0.0675,0.0751,0.0855,0.095,0.1032,0.1091,0.116,0.124,0.122,0.0953,0.0703,0.0315,0.0109,-0.0272,-0.0175,-0.0337,-0.0475,-0.0551,-0.0628,-0.019,-0.0202,-0.0202,-0.0202,-0.0202,-0.0202,0.0537,0.0591,0.0667,0.0779,0.0872,0.1001,0.1105,0.122,0.1358,0.1485,0.1459,0.1476,0.109,0.0575,0.0275,-0.0255,-0.0278,-0.0416,-0.0528,-0.059,-0.0653,-0.0207,-0.0251,-0.0251,-0.0251,-0.0252,-0.0252,0,0.0605,0.0665,0.077,0.0898,0.1013,0.1053,0.1226,0.1341,0.1519,0.1645,0.1722,0.1554,0.1075,0.0565,-0.0147,-0.0524,-0.0667,-0.0744,-0.0851,-0.0878,-0.0486,-0.0488,-0.0566,-0.0566,-0.0566,-0.0565,-0.0565,-0.0565,0.0641,0.0743,0.0794,0.0991,0.1089,0.1255,0.136,0.1532,0.1661,0.1819,0.1851,0.184,0.1442,0.0173,-0.0671,-0.0872,-0.1133,-0.1214,-0.134,-0.1084,-0.1062,-0.1041,-0.1066,-0.1263,-0.1264,-0.1656,-0.166,-0.1664]}],[{"header":{"parameterUnit":"m.s-1","parameterCategory":2,"la1":30.2991,"la2":30.254,"lo1":-89.0895,"lo2":-89.0444,"dy":0.0017,"dx":0.0017,"nx":28,"ny":28,"refTime":"2024-12-18T09:00:00:Z","depth":"2","parameterNumber":2,"parameterNumberName":"U-component_of_CURRENTS"},"data":[0,0,0,0,0,0,0,0,0,0,0,0,0,0,0,0,0,0,0,0,0,0,0,0,0,0,0,0,0,0,0,0,0,0,0,0,0,0,0,0,0,0,0,0,0,0,0,0,0,0,0,0,0,0,0,0,0,0,0.2935,0.2935,0,0.2956,0.2956,0.2956,0.2964,0.2964,0.2964,0.2964,0.3,0.3001,0.3002,0,0,0,0,0,0,0,0,0,0,0,0,0,0.2909,0.291,0.2934,0.2935,0.2935,0.2956,0.2956,0.2956,0.2964,0.2964,0.2964,0.2964,0.3,0.3001,0.3002,0,0,0,0,0,0,0,0,0,0,0,0,0,0.2925,0.291,0.2934,0.2941,0.2942,0.2955,0.2956,0.2956,0.2964,0.2964,0.2964,0.2964,0.2999,0.3001,0.3003,0.3016,0,0,0.3008,0.3008,0,0,0,0,0,0,0,0,0.2924,0.2926,0.294,0.2941,0.2941,0.2957,0.296,0.2977,0.2964,0.2956,0.2964,0.2964,0.2987,0.299,0.2994,0.3018,0.3019,0.3008,0.3009,0.3009,0.301,0,0,0,0,0,0,0,0.2923,0.2925,0.2943,0.294,0.2941,0.2946,0.2948,0.2964,0.2973,0.2957,0.2957,0.2959,0.2987,0.2993,0.2995,0.302,0.3008,0.3009,0.301,0.3011,0.3082,0.3083,0,0,0,0,0,0,0.2919,0.2924,0.2943,0.2944,0.2932,0.2946,0.2948,0.2952,0.2972,0.2975,0.2959,0.2959,0.299,0.2993,0.2997,0.3041,0.3009,0.3011,0.3012,0.3081,0.3082,0.3083,0,0,0,0,0,0,0.2919,0.2921,0.2942,0.2934,0.2937,0.2947,0.2951,0.2953,0.2974,0.2974,0.2977,0.298,0.299,0.2994,0.3016,0.3041,0.3012,0.3013,0.308,0.3081,0.3083,0.3112,0,0,0,0,0,0,0.2918,0.292,0.2928,0.2934,0.2937,0.296,0.2951,0.2953,0.2974,0.2974,0.2992,0.2994,0.299,0.3014,0.3018,0.3043,0.3014,0.3079,0.3081,0.3082,0.311,0.3114,0.3118,0,0,0,0,0,0.2917,0.2915,0.2928,0.2931,0.2945,0.296,0.2963,0.297,0.2975,0.2988,0.2994,0.2995,0.3028,0.3016,0.302,0.3047,0.3078,0.308,0.3082,0.3108,0.3114,0.3118,0,0,0,0,0,0,0.2896,0.2917,0.293,0.2933,0.2955,0.2962,0.2972,0.2982,0.2999,0.3003,0.3004,0.3007,0.3039,0.3038,0.3025,0.3072,0.3055,0.3058,0.3073,0.3078,0.3082,0.3095,0.3016,0,0,0,0,0,0.2899,0.2913,0.2933,0.2939,0.2953,0.2971,0.2981,0.299,0.3001,0.301,0.3018,0.3031,0.305,0.3059,0.3073,0.3098,0.3116,0.3118,0.3122,0.3126,0.314,0.3184,0.3193,0.309,0.309,0.309,0,0,0.2892,0.2906,0.2914,0.2938,0.2956,0.2977,0.2977,0.2998,0.3016,0.3011,0.3038,0.305,0.3061,0.3086,0.3101,0.3089,0.3165,0.3128,0.3131,0.3144,0.3187,0.3197,0.3206,0.3092,0.3091,0.3091,0,0,0.2884,0.2903,0.2918,0.2941,0.2973,0.2987,0.3,0.3022,0.3037,0.3061,0.3066,0.3092,0.3111,0.3126,0.3136,0.3174,0.3188,0.318,0.3209,0.3252,0.3261,0.3269,0.3305,0.3316,0.3178,0.3178,0.3178,0,0.2878,0.2896,0.2923,0.2945,0.2963,0.2996,0.3015,0.3038,0.3062,0.308,0.3072,0.3125,0.3132,0.3178,0.3187,0.3185,0.3209,0.3188,0.3258,0.3266,0.3274,0.3309,0.3321,0.318,0.318,0.318,0.3179,0,0.2883,0.2904,0.2915,0.2959,0.2983,0.3004,0.3041,0.3069,0.3089,0.311,0.3161,0.3174,0.3206,0.3214,0.321,0.3275,0.3274,0.3261,0.3246,0.3287,0.332,0.3332,0.3182,0.3182,0.3181,0.3181,0,0,0.2847,0.2908,0.2913,0.2935,0.2992,0.3007,0.3053,0.3098,0.3141,0.3164,0.3215,0.3245,0.3266,0.3279,0.329,0.3325,0.3395,0.3319,0.332,0.3355,0.3494,0.3437,0.3444,0.3396,0.3398,0.34,0.3495,0,0.2846,0.2879,0.2916,0.2951,0.2971,0.3023,0.3065,0.3114,0.3163,0.3221,0.3254,0.331,0.3288,0.3322,0.335,0.3396,0.3429,0.3371,0.3449,0.3452,0.3397,0.3457,0.3179,0.3235,0.3507,0.3509,0.351,0,0.2834,0.2861,0.2892,0.2952,0.2969,0.3,0.3082,0.3129,0.3224,0.327,0.3333,0.337,0.3439,0.3411,0.35,0.3467,0.3485,0.3507,0.351,0.3458,0.3417,0.3238,0.3247,0.353,0.3528,0.3527,0.3526,0,0.2779,0.2838,0.286,0.288,0.2958,0.2988,0.304,0.3139,0.3195,0.3319,0.3373,0.3456,0.351,0.3552,0.3587,0.3559,0.368,0.3642,0.3606,0.3602,0.3381,0.3353,0.3703,0.3703,0.3702,0.3702,0.3702,0,0.2746,0.2762,0.2838,0.2847,0.2892,0.2962,0.3031,0.311,0.323,0.3302,0.3397,0.3469,0.3551,0.3617,0.3631,0.3663,0.3715,0.3633,0.3631,0.3382,0.3355,0.3618,0.3607,0.3706,0.3705,0.3704,0.3704,0,0.2673,0.2722,0.2749,0.2832,0.2863,0.2897,0.3015,0.3068,0.3202,0.3304,0.3348,0.3502,0.3602,0.3663,0.3755,0.3719,0.3759,0.3749,0.3454,0.3415,0.364,0.3629,0.3728,0.3727,0.3726,0.3726,0.3725,0,0.2634,0.2642,0.2724,0.2742,0.278,0.2846,0.2893,0.3037,0.3104,0.3308,0.3346,0.3502,0.3569,0.3692,0.3693,0.3724,0.3768,0.3465,0.3356,0.3659,0.3647,0.3638,0.3628,0.3074,0.3068,0.3063,0.3059,0,0.2563,0.2598,0.2623,0.2669,0.2711,0.2754,0.2839,0.2887,0.3055,0.3145,0.3271,0.3353,0.3498,0.3421,0.3487,0.3461,0.344,0.337,0.3772,0.3115,0.3051,0.3036,0.3047,0.3016,0.302,0.3024,0.3026,0.3028,0.2509,0.2509,0.255,0.258,0.2622,0.2643,0.264,0.2737,0.2813,0.2919,0.3089,0.3117,0.3191,0.3158,0.3084,0.3036,0.3267,0.3102,0.3112,0.3129,0.3041,0.298,0.2915,0.2919,0.2922,0.2924,0.2927,0,0.2428,0.2439,0.2459,0.2477,0.2463,0.2533,0.2578,0.2548,0.2571,0.2709,0.2786,0.2613,0.2595,0.2661,0.2532,0.2556,0.2494,0.2442,0.232,0.2367,0.2408,0.2277,0.1952,0.1948,0.1945,0.1942,0,0,0.2387,0.2362,0.2364,0.2307,0.2319,0.226,0.2252,0.2239,0.2289,0.2276,0.2281,0.2493,0.2596,0.2232,0.2207,0.2047,0.2181,0.1973,0.2765,0.267,0.2706,0.2814,0.2671,0,0,0,0,0]},{"header":{"parameterUnit":"m.s-1","parameterCategory":2,"la1":30.2991,"la2":30.254,"lo1":-89.0895,"lo2":-89.0444,"dy":0.0017,"dx":0.0017,"nx":28,"ny":28,"refTime":"2024-12-18T09:00:00:Z","depth":"2","parameterNumber":3,"parameterNumberName":"V-component_of_CURRENTS"},"data":[0,0,0,0,0,0,0,0,0,0,0,0,0,0,0,0,0,0,0,0,0,0,0,0,0,0,0,0,0,0,0,0,0,0,0,0,0,0,0,0,0,0,0,0,0,0,0,0,0,0,0,0,0,0,0,0,0,0,0.0154,0.0154,0,0.0088,0.0087,0.0087,0.0039,0.0039,0.0039,0.0039,-0.0049,-0.0051,-0.0054,0,0,0,0,0,0,0,0,0,0,0,0,0,0.0177,0.0177,0.0154,0.0154,0.0153,0.0089,0.0087,0.0086,0.0039,0.0039,0.0039,0.0039,-0.0049,-0.0051,-0.0054,0,0,0,0,0,0,0,0,0,0,0,0,0,0.0143,0.0177,0.0154,0.0124,0.0121,0.0089,0.0087,0.0086,0.004,0.0039,0.0039,0.0039,-0.0048,-0.0051,-0.0054,-0.0071,0,0,-0.0064,-0.0066,0,0,0,0,0,0,0,0,0.0145,0.0142,0.0129,0.0126,0.0122,0.0074,0.0063,0.0033,0.004,0.0068,0.0039,0.0039,-0.0008,-0.0015,-0.003,-0.0075,-0.0078,-0.0065,-0.0067,-0.0068,-0.0069,0,0,0,0,0,0,0,0.0147,0.0144,0.0126,0.0129,0.0124,0.0093,0.0088,0.0057,0.0029,0.0065,0.0062,0.0059,-0.0011,-0.0027,-0.0033,-0.008,-0.0065,-0.0068,-0.007,-0.0071,-0.0133,-0.0133,0,0,0,0,0,0,0.0164,0.0147,0.0128,0.0124,0.0136,0.0093,0.0087,0.0088,0.003,0.0022,0.0059,0.0057,-0.0021,-0.0029,-0.0036,-0.004,-0.0068,-0.0071,-0.0073,-0.0134,-0.0133,-0.0133,0,0,0,0,0,0,0.0165,0.0164,0.013,0.0135,0.0129,0.0093,0.0094,0.0087,0.0071,0.0026,0.0017,0.0052,-0.0021,-0.0031,-0.0053,-0.0045,-0.0073,-0.0076,-0.0134,-0.0134,-0.0133,-0.0061,0,0,0,0,0,0,0.0166,0.0164,0.0168,0.0137,0.013,0.012,0.0094,0.0086,0.0071,0.0067,0.0017,0.0008,-0.0022,-0.0048,-0.0056,-0.005,-0.0078,-0.0135,-0.0134,-0.0133,-0.0063,-0.0058,-0.0053,0,0,0,0,0,0.0167,0.0181,0.0168,0.0166,0.0137,0.0121,0.0114,0.0085,0.0071,0.0069,0.0038,0.001,-0.005,-0.005,-0.006,-0.0054,-0.0135,-0.0134,-0.0133,-0.0066,-0.0059,-0.0053,0,0,0,0,0,0,0.0195,0.0176,0.0162,0.0169,0.0149,0.0114,0.0111,0.009,0.0062,0.006,0.0014,0.0004,-0.0014,-0.0044,-0.0043,-0.0071,-0.0098,-0.0099,-0.0043,-0.0037,-0.0031,-0.0011,-0.0081,0,0,0,0,0,0.0203,0.0206,0.0181,0.0186,0.0179,0.0144,0.0133,0.0115,0.0088,0.0076,0.0042,0.0007,-0.0019,-0.0034,-0.0065,-0.0079,-0.0108,-0.0083,-0.0077,-0.0072,-0.0063,-0.0096,-0.0092,-0.0131,-0.0131,-0.0131,0,0,0.0214,0.0205,0.0206,0.0191,0.0172,0.0174,0.0136,0.0127,0.0128,0.0071,0.0061,0.0024,-0.0019,-0.0034,-0.0045,-0.0057,-0.0077,-0.0071,-0.0067,-0.0061,-0.0095,-0.0091,-0.0088,-0.013,-0.013,-0.013,0,0,0.0243,0.0232,0.0244,0.0233,0.0215,0.0197,0.0198,0.0166,0.0151,0.0134,0.0097,0.007,0.0025,0.0001,-0.0019,-0.0003,-0.0048,-0.0017,0.0027,-0.0004,-0.0001,0.0001,-0.0028,-0.0029,-0.0013,-0.0013,-0.0013,0,0.0257,0.0272,0.0244,0.0254,0.0256,0.0213,0.023,0.0208,0.0173,0.0169,0.0142,0.0082,0.0043,0.0031,0.0035,0.001,-0.0016,0.0008,0.0004,0.0006,0.0007,-0.0024,-0.0026,-0.0009,-0.001,-0.001,-0.001,0,0.0294,0.0305,0.0314,0.0315,0.0311,0.032,0.0294,0.0284,0.0258,0.0236,0.0212,0.0154,0.0123,0.0101,0.0071,0.0063,0.004,0.0015,-0.0008,0.0015,-0.002,-0.0023,-0.0004,-0.0005,-0.0006,-0.0007,0,0,0.033,0.0339,0.0342,0.0359,0.0348,0.0354,0.0356,0.0351,0.0364,0.031,0.0316,0.0256,0.0221,0.0197,0.015,0.0118,0.0099,0.0076,0.0073,0.0054,0.0031,0.0011,0.0004,0.0073,0.0073,0.0073,0.0005,0,0.0368,0.0409,0.04,0.0442,0.0465,0.0437,0.0448,0.0436,0.0416,0.0409,0.0342,0.0326,0.0259,0.0246,0.0204,0.0129,0.0094,0.012,0.0005,0.0001,-0.0014,0.0001,0.0025,-0.0034,0.0001,0.0001,0.0,0,0.041,0.0435,0.0483,0.0518,0.0525,0.0539,0.056,0.0567,0.0543,0.0527,0.0492,0.0436,0.0383,0.032,0.0204,0.0224,0.0137,0.007,0.0065,0.002,-0.0025,-0.0054,-0.0042,-0.0006,-0.0005,-0.0005,-0.0004,0,0.0456,0.0497,0.0543,0.0553,0.0577,0.0593,0.0606,0.0601,0.0631,0.0606,0.0617,0.0533,0.0502,0.0381,0.0235,0.0221,0.0103,0.0064,-0.0038,-0.0041,-0.0056,-0.006,-0.0019,-0.0019,-0.0018,-0.0018,-0.0018,0,0.0508,0.0544,0.0568,0.0593,0.0659,0.065,0.0715,0.0713,0.0729,0.0783,0.0685,0.0697,0.0516,0.0421,0.0273,0.0115,0.013,-0.0024,-0.0057,-0.0031,-0.0031,-0.0037,-0.0038,-0.0021,-0.002,-0.002,-0.0019,0,0.0552,0.0563,0.0624,0.0661,0.0683,0.073,0.0801,0.0849,0.0847,0.0912,0.0908,0.0827,0.0706,0.0514,0.0324,0.018,0.0018,-0.0045,-0.0001,-0.0028,-0.0117,-0.0113,-0.0164,-0.0166,-0.0167,-0.0167,-0.0168,0,0.0579,0.0613,0.0683,0.073,0.0751,0.0823,0.088,0.0909,0.0975,0.1,0.1041,0.0936,0.0887,0.059,0.032,0.0059,0.002,-0.0099,-0.0128,-0.0103,-0.013,-0.0125,-0.0121,-0.0123,-0.0123,-0.0123,-0.0123,0,0.0636,0.0655,0.0706,0.0807,0.0875,0.0969,0.1053,0.1123,0.1169,0.1215,0.1254,0.1209,0.0933,0.0675,0.0309,0.0125,-0.0058,-0.0113,-0.0094,-0.0087,-0.0069,-0.0094,-0.009,-0.0126,-0.0125,-0.0125,-0.0125,-0.0125,0.068,0.0727,0.0794,0.0893,0.0978,0.1093,0.1183,0.1276,0.1384,0.146,0.1417,0.1358,0.1059,0.0596,0.0274,-0.0074,-0.0059,-0.0185,-0.0182,-0.0179,-0.0159,-0.0144,-0.0212,-0.0212,-0.0212,-0.0212,-0.0212,0,0.0734,0.0787,0.0879,0.0993,0.1095,0.1136,0.1287,0.1375,0.1505,0.1563,0.159,0.1306,0.1006,0.0652,0.0147,-0.0152,-0.018,-0.0257,-0.0218,-0.0213,-0.021,-0.019,-0.0252,-0.0253,-0.0254,-0.0254,0,0,0.0761,0.085,0.0895,0.1066,0.1154,0.1301,0.1391,0.1514,0.159,0.1645,0.1614,0.1549,0.1118,0.0752,0.034,0.0046,-0.002,-0.0022,0.0042,0.0141,0.0149,-0.0136,-0.0097,0,0,0,0,0]}],[{"header":{"parameterUnit":"m.s-1","parameterCategory":2,"la1":30.2991,"la2":30.254,"lo1":-89.0895,"lo2":-89.0444,"dy":0.0017,"dx":0.0017,"nx":28,"ny":28,"refTime":"2024-12-18T09:00:00:Z","depth":"4","parameterNumber":2,"parameterNumberName":"U-component_of_CURRENTS"},"data":[0,0,0,0,0,0,0,0,0,0,0,0,0,0,0,0,0,0,0,0,0,0,0,0,0,0,0,0,0,0,0,0,0,0,0,0,0,0,0,0,0,0,0,0,0,0,0,0,0,0,0,0,0,0,0,0,0,0,0.1817,0.1818,0,0.1902,0.1903,0.1903,0.1959,0.196,0.1961,0.1961,0.2014,0.2015,0.2016,0,0,0,0,0,0,0,0,0,0,0,0,0,0.1688,0.169,0.1817,0.1818,0.182,0.1902,0.1903,0.1903,0.1959,0.196,0.1961,0.1962,0.2014,0.2015,0.2016,0,0,0,0,0,0,0,0,0,0,0,0,0,0.1752,0.169,0.1817,0.186,0.1865,0.1902,0.1903,0.1904,0.1959,0.196,0.1961,0.1962,0.2014,0.2015,0.2016,0.2,0,0,0.2019,0.202,0,0,0,0,0,0,0,0,0.1748,0.1756,0.1853,0.1858,0.1863,0.1925,0.1877,0.1936,0.1959,0.1919,0.1961,0.1963,0.1983,0.1987,0.1995,0.2003,0.2005,0.2019,0.202,0.2021,0.2021,0,0,0,0,0,0,0,0.1743,0.1752,0.1846,0.1854,0.1861,0.1871,0.1881,0.1888,0.194,0.1923,0.1928,0.1943,0.1986,0.1994,0.1997,0.2006,0.2019,0.202,0.2021,0.2021,0.2131,0.2133,0,0,0,0,0,0,0.1741,0.1748,0.1844,0.1849,0.1812,0.1873,0.1884,0.19,0.1941,0.195,0.1942,0.1946,0.1992,0.1995,0.1999,0.2087,0.202,0.2022,0.2022,0.2128,0.2131,0.2133,0,0,0,0,0,0,0.1738,0.1749,0.184,0.1804,0.1817,0.1874,0.1892,0.1902,0.1952,0.1957,0.1965,0.1989,0.1993,0.1997,0.2049,0.2085,0.2022,0.2023,0.2126,0.2129,0.2132,0.2196,0,0,0,0,0,0,0.1734,0.1747,0.1775,0.1804,0.1819,0.189,0.1892,0.1903,0.1959,0.1966,0.1998,0.2002,0.1994,0.2048,0.205,0.2086,0.2024,0.2123,0.2127,0.2131,0.2191,0.2201,0.2209,0,0,0,0,0,0.1729,0.1757,0.1775,0.1788,0.185,0.1892,0.1901,0.1941,0.1961,0.1989,0.2019,0.2003,0.2077,0.2051,0.2053,0.2089,0.2121,0.2126,0.2131,0.2187,0.2199,0.2209,0,0,0,0,0,0,0.1715,0.1766,0.1787,0.1831,0.1873,0.1903,0.1943,0.1964,0.201,0.203,0.2028,0.2034,0.2095,0.2087,0.2059,0.2136,0.2097,0.2103,0.2139,0.215,0.216,0.2161,0.2025,0,0,0,0,0,0.1725,0.1764,0.1807,0.1848,0.1874,0.1915,0.1946,0.1974,0.2011,0.2035,0.2057,0.2085,0.211,0.2128,0.2148,0.2185,0.2186,0.2213,0.2223,0.223,0.2236,0.2272,0.2285,0.215,0.215,0.215,0,0,0.173,0.1767,0.179,0.1849,0.1888,0.1926,0.1937,0.1999,0.2034,0.2031,0.21,0.2122,0.213,0.2178,0.2204,0.218,0.2273,0.2237,0.2243,0.2244,0.2279,0.2292,0.2303,0.2153,0.2153,0.2152,0,0,0.175,0.1799,0.1835,0.1874,0.1944,0.1967,0.1994,0.205,0.2087,0.2145,0.2158,0.2207,0.2242,0.2257,0.2264,0.2338,0.2325,0.2352,0.2395,0.2431,0.2442,0.2451,0.2478,0.2489,0.2352,0.2352,0.2352,0,0.176,0.1806,0.1853,0.1896,0.1933,0.1988,0.2028,0.2069,0.2136,0.2167,0.2181,0.2264,0.2275,0.2324,0.2356,0.2357,0.2376,0.2347,0.2441,0.2451,0.2459,0.2484,0.2496,0.2356,0.2355,0.2355,0.2355,0,0.1792,0.1844,0.1873,0.1942,0.1985,0.2036,0.2092,0.2148,0.2199,0.2232,0.2316,0.2346,0.2391,0.2408,0.2405,0.2477,0.2471,0.2451,0.2407,0.2477,0.2499,0.251,0.2361,0.236,0.2359,0.2358,0,0,0.1776,0.1875,0.189,0.1926,0.2017,0.2049,0.2123,0.2191,0.2248,0.2317,0.2383,0.244,0.2473,0.2486,0.2501,0.2535,0.2617,0.2529,0.2529,0.2546,0.2703,0.2536,0.2531,0.2619,0.2621,0.2623,0.2696,0,0.1792,0.1863,0.1914,0.1986,0.2025,0.2097,0.2156,0.2228,0.23,0.2379,0.2428,0.2503,0.2497,0.2544,0.2577,0.2614,0.2649,0.2599,0.2642,0.2643,0.2477,0.2539,0.263,0.2704,0.2707,0.2709,0.271,0,0.18,0.1849,0.1918,0.2007,0.2034,0.209,0.2198,0.2261,0.2374,0.2436,0.2517,0.2565,0.2646,0.2629,0.2716,0.2691,0.2708,0.2723,0.2725,0.2551,0.2495,0.262,0.2729,0.2728,0.2726,0.2725,0.2724,0,0.1745,0.1847,0.1901,0.1933,0.2044,0.2099,0.2169,0.2285,0.2351,0.2491,0.2557,0.2647,0.2715,0.2754,0.2793,0.2773,0.2874,0.2839,0.2701,0.269,0.2789,0.2778,0.2894,0.2894,0.2894,0.2894,0.2894,0,0.1718,0.1767,0.1889,0.1916,0.1995,0.2085,0.2183,0.2273,0.2403,0.2476,0.2591,0.2656,0.2756,0.2817,0.283,0.2797,0.2903,0.2717,0.2698,0.2816,0.2807,0.2797,0.2785,0.2897,0.2896,0.2895,0.2895,0,0.1645,0.1726,0.1795,0.1923,0.1972,0.2032,0.2185,0.2245,0.2392,0.2496,0.2548,0.2694,0.2771,0.2837,0.2912,0.2827,0.2825,0.2786,0.2925,0.2912,0.2608,0.2599,0.2629,0.2624,0.2619,0.2616,0.2612,0,0.1608,0.164,0.1786,0.1831,0.1899,0.2004,0.207,0.2227,0.2292,0.2489,0.2519,0.2659,0.273,0.2696,0.2786,0.2793,0.2758,0.2735,0.2649,0.2603,0.2583,0.258,0.2577,0.2605,0.2604,0.2603,0.2602,0,0.1536,0.1608,0.1665,0.1761,0.1842,0.1911,0.2023,0.2052,0.2221,0.2374,0.2425,0.2463,0.2542,0.2586,0.2615,0.2614,0.2735,0.2687,0.2695,0.2615,0.2575,0.2558,0.256,0.2586,0.2588,0.259,0.2591,0,0.149,0.1511,0.16,0.1667,0.176,0.1789,0.1859,0.1925,0.2004,0.2213,0.2227,0.2372,0.2513,0.2496,0.2526,0.2511,0.2463,0.2365,0.2389,0.2408,0.23,0.2214,0.2104,0,0,0,0,0,0.1433,0.1442,0.1496,0.1555,0.1636,0.169,0.1812,0.1882,0.2041,0.2017,0.2113,0.2173,0.2215,0.23,0.2239,0.2436,0.2479,0.2354,0.238,0.25,0.2518,0.2411,0,0,0,0,0,0,0.1393,0.1441,0.1454,0.1445,0.1461,0.153,0.1598,0.1704,0.1701,0.1872,0.1907,0.2038,0.2117,0.2223,0.2196,0.222,0.2189,0.2453,0.2447,0.249,0.2506,0.252,0.2416,0,0,0,0,0]},{"header":{"parameterUnit":"m.s-1","parameterCategory":2,"la1":30.2991,"la2":30.254,"lo1":-89.0895,"lo2":-89.0444,"dy":0.0017,"dx":0.0017,"nx":28,"ny":28,"refTime":"2024-12-18T09:00:00:Z","depth":"4","parameterNumber":3,"parameterNumberName":"V-component_of_CURRENTS"},"data":[0,0,0,0,0,0,0,0,0,0,0,0,0,0,0,0,0,0,0,0,0,0,0,0,0,0,0,0,0,0,0,0,0,0,0,0,0,0,0,0,0,0,0,0,0,0,0,0,0,0,0,0,0,0,0,0,0,0,0.0209,0.0209,0,0.0165,0.0164,0.0164,0.014,0.014,0.014,0.014,0.0103,0.0102,0.0101,0,0,0,0,0,0,0,0,0,0,0,0,0,0.0227,0.0227,0.0209,0.0209,0.0208,0.0165,0.0164,0.0164,0.014,0.014,0.014,0.0141,0.0103,0.0102,0.0101,0,0,0,0,0,0,0,0,0,0,0,0,0,0.0204,0.0227,0.0209,0.0192,0.019,0.0165,0.0164,0.0163,0.014,0.014,0.014,0.0141,0.0103,0.0102,0.01,0.0089,0,0,0.0096,0.0095,0,0,0,0,0,0,0,0,0.0205,0.0203,0.0195,0.0194,0.0191,0.0159,0.0157,0.0139,0.014,0.0158,0.014,0.0141,0.0123,0.012,0.011,0.0087,0.0086,0.0095,0.0094,0.0094,0.0093,0,0,0,0,0,0,0,0.0207,0.0204,0.0191,0.0195,0.0192,0.0171,0.0168,0.0153,0.014,0.0157,0.0155,0.0152,0.0122,0.0111,0.0109,0.0085,0.0095,0.0094,0.0093,0.0092,0.0052,0.0052,0,0,0,0,0,0,0.0217,0.0206,0.0192,0.019,0.02,0.0171,0.0167,0.0169,0.014,0.0136,0.0152,0.0151,0.0114,0.011,0.0107,0.0108,0.0094,0.0092,0.0091,0.0052,0.0052,0.0052,0,0,0,0,0,0,0.0217,0.0216,0.0194,0.0197,0.0193,0.0171,0.0172,0.0168,0.0161,0.0136,0.0132,0.015,0.0114,0.0109,0.0098,0.0105,0.0092,0.009,0.0052,0.0052,0.0052,0.0099,0,0,0,0,0,0,0.0218,0.0217,0.0221,0.0198,0.0193,0.0185,0.0172,0.0167,0.0159,0.0158,0.0134,0.013,0.0113,0.01,0.0096,0.0103,0.0089,0.0052,0.0052,0.0052,0.0097,0.01,0.0102,0,0,0,0,0,0.0219,0.0227,0.0222,0.022,0.0201,0.0185,0.0181,0.0164,0.0159,0.0158,0.0142,0.0131,0.0096,0.0099,0.0094,0.0101,0.0052,0.0052,0.0052,0.0096,0.01,0.0102,0,0,0,0,0,0,0.0236,0.0224,0.0219,0.0223,0.0208,0.0182,0.018,0.0168,0.0153,0.0155,0.0131,0.0126,0.0118,0.01,0.0104,0.0086,0.0072,0.007,0.0107,0.011,0.0112,0.0128,0.0088,0,0,0,0,0,0.0243,0.0247,0.0228,0.0232,0.0227,0.0204,0.0197,0.0186,0.0169,0.0163,0.0145,0.0126,0.0111,0.0104,0.0086,0.0079,0.0055,0.0078,0.0081,0.0083,0.0091,0.0059,0.0059,0.0051,0.0051,0.0051,0,0,0.0251,0.0245,0.0247,0.0236,0.0224,0.0224,0.02,0.0193,0.0195,0.0162,0.0159,0.0136,0.011,0.0101,0.0096,0.009,0.0071,0.0083,0.0085,0.0092,0.0059,0.0059,0.006,0.0051,0.0051,0.0051,0,0,0.0268,0.0264,0.0272,0.0265,0.0252,0.024,0.0241,0.0219,0.0211,0.0202,0.0179,0.0162,0.0137,0.012,0.0109,0.0114,0.0085,0.0107,0.0135,0.0104,0.0105,0.0105,0.0071,0.0068,0.0109,0.0109,0.0109,0,0.0278,0.0289,0.0271,0.0277,0.028,0.0252,0.0264,0.0249,0.0226,0.0225,0.0208,0.017,0.0147,0.0138,0.0138,0.0122,0.0098,0.0129,0.0109,0.0109,0.0108,0.0073,0.0069,0.0112,0.0111,0.0111,0.0111,0,0.0299,0.031,0.0315,0.0319,0.0316,0.0322,0.0305,0.0299,0.0286,0.0271,0.0255,0.0215,0.0196,0.018,0.0162,0.015,0.0131,0.0116,0.0105,0.0112,0.0074,0.0069,0.0115,0.0114,0.0113,0.0113,0,0,0.0319,0.033,0.0333,0.0349,0.0343,0.0347,0.035,0.0347,0.0359,0.0321,0.0325,0.0284,0.0261,0.0245,0.0213,0.0182,0.0153,0.0153,0.0151,0.0127,0.0081,0.0067,0.0059,0.0136,0.0135,0.0135,0.0054,0,0.0343,0.0372,0.0369,0.0403,0.0419,0.0405,0.0414,0.0408,0.0395,0.039,0.0341,0.0332,0.0286,0.0279,0.024,0.0179,0.0143,0.0176,0.0071,0.0068,0.0061,0.0054,0.0133,0.005,0.0049,0.0048,0.0048,0,0.0366,0.0386,0.0424,0.0457,0.0463,0.0478,0.0499,0.0505,0.0488,0.0478,0.0451,0.0411,0.0365,0.0323,0.0216,0.024,0.0168,0.0111,0.0106,0.0075,0.0045,0.0041,0.0038,0.0039,0.004,0.004,0.0041,0,0.0393,0.0428,0.0466,0.0475,0.05,0.0519,0.0534,0.0533,0.0556,0.0538,0.0546,0.0476,0.0449,0.0348,0.0227,0.0223,0.0103,0.0082,-0.0004,-0.0006,0.0011,0.0011,0.0004,0.0004,0.0004,0.0004,0.0005,0,0.0421,0.0453,0.0485,0.0505,0.0562,0.0562,0.0617,0.0619,0.0633,0.0667,0.06,0.0596,0.0455,0.0367,0.0247,0.0109,0.0116,0.0001,-0.0027,0.0031,0.0034,0.0007,0.0008,0.0001,0.0002,0.0003,0.0003,0,0.0442,0.046,0.0511,0.0553,0.0577,0.0618,0.0686,0.0721,0.0725,0.0764,0.0763,0.0689,0.0573,0.042,0.0253,0.0146,0.0008,-0.0045,0.003,0.0007,-0.0088,-0.0083,-0.0148,-0.0149,-0.015,-0.0151,-0.0152,0,0.0454,0.0482,0.0555,0.0597,0.0622,0.0688,0.0737,0.0768,0.0812,0.0819,0.0839,0.0742,0.067,0.0428,0.0258,0.0023,-0.0013,-0.0091,-0.0095,-0.0082,-0.0103,-0.0097,-0.0091,-0.0153,-0.0153,-0.0154,-0.0154,0,0.048,0.0508,0.0551,0.0642,0.0705,0.0783,0.0853,0.0891,0.0924,0.093,0.0902,0.077,0.0636,0.0435,0.0252,0.0083,-0.0044,-0.0102,-0.0102,-0.0106,-0.009,-0.0108,-0.0101,-0.0157,-0.0157,-0.0156,-0.0156,0,0.0504,0.0539,0.0601,0.0682,0.0766,0.0845,0.0884,0.0929,0.0968,0.097,0.0958,0.0806,0.0721,0.0466,0.0299,0.0129,0.0078,0.0013,0.0007,0.0009,0.0072,0.0117,0.0091,0,0,0,0,0,0.0522,0.0563,0.0638,0.0723,0.0807,0.0863,0.0947,0.0977,0.1008,0.0998,0.0981,0.0854,0.0602,0.0496,0.0324,0.0264,0.0039,0.0054,-0.004,-0.0176,-0.0172,-0.0126,0,0,0,0,0,0,0.0532,0.0599,0.0634,0.0742,0.0808,0.0907,0.0963,0.0988,0.0986,0.0987,0.0862,0.0801,0.0562,0.0704,0.0319,0.0267,0.0179,-0.0059,-0.0063,-0.0178,-0.0175,-0.0171,-0.0123,0,0,0,0,0]}]]